Home   Weather   Gdańsk   Past weeks

Flag for Poland Past Weather in Gdańsk, Poland — Yesterday and Last 2 Weeks

Now
37 °F

Mostly cloudy.


Feels Like: 31 °F
Forecast: 38 / 43 °F
Wind: 8 mph from West

Location: Gdansk-Rebiechowo

Current Time: Dec 5, 2016 at 9:48:27 pm

Latest Report: Dec 5, 2016 at 9:00 pm


Visibility: N/A

Pressure: 30.04 "Hg

Humidity: 93%

Dew Point: 36 °F

Location of GdańskLocation

Past Weather in Gdańsk — Graph

°F

Gdańsk Temperature Yesterday

Maximum temperature yesterday: 36 °F (at 11:30 pm)
Minimum temperature yesterday: 28 °F (at 4:30 am)
Average temperature yesterday: 31 °F

High & Low Weather Summary for the Past Weeks

 TemperatureHumidityPressure
High50 °F (Nov 21, 1:30 pm)100% (Nov 21, 8:00 am)30.30 "Hg (Nov 21, 8:00 am)
Low27 °F (Dec 3, 9:00 am)52% (Nov 28, 3:00 pm)29.33 "Hg (Dec 2, 12:00 am)
Average37 °F90%29.99 "Hg
* Reported Nov 20 8:00 pm — Dec 5 8:30 pm, Gdańsk, Weather by CustomWeather, © 2016

Note: Actual official high and low records may vary slightly from our data, if they occured in-between our weather recording intervals... More about our weather records

Advertising

Gdańsk Weather History for the Previous 24 Hours

Scroll right to see more
 ConditionsComfort  
Time TempWeatherWind HumidityBarometerVisibility
8:30 pm
Mon, Dec 5
37 °FLow clouds.9 mph93%30.01 "HgN/A
8:00 pm37 °FPassing clouds.12 mph93%30.04 "HgN/A
7:30 pm37 °FPassing clouds.12 mph93%30.01 "Hg5 mi
7:00 pm37 °FPassing clouds.14 mph93%30.04 "HgN/A
6:30 pm37 °FPassing clouds.14 mph87%30.04 "HgN/A
6:00 pm37 °FPassing clouds.17 mph87%30.01 "HgN/A
5:30 pm37 °FOvercast.20 mph87%30.04 "HgN/A
5:00 pm37 °FOvercast.17 mph87%30.04 "HgN/A
4:30 pm37 °FOvercast.17 mph87%30.04 "HgN/A
4:00 pm37 °FOvercast.14 mph81%30.04 "HgN/A
3:30 pm37 °FOvercast.16 mph81%30.04 "HgN/A
3:00 pm37 °FPartly sunny.17 mph81%30.07 "HgN/A
2:30 pm37 °FPartly sunny.17 mph87%30.07 "HgN/A
2:00 pm36 °FPartly sunny.13 mph87%30.07 "HgN/A
1:30 pm36 °FBroken clouds.14 mph87%30.09 "HgN/A
1:00 pm36 °FBroken clouds.17 mph87%30.09 "HgN/A
12:30 pm36 °FBroken clouds.20 mph87%30.09 "HgN/A
12:00 pm36 °FBroken clouds.18 mph87%30.09 "HgN/A
11:30 am36 °FPartly sunny.16 mph87%30.12 "HgN/A
11:00 am36 °FBroken clouds.18 mph87%30.12 "HgN/A
10:30 am36 °FPartly sunny.18 mph87%30.12 "HgN/A
10:00 am36 °FPartly sunny.15 mph87%30.15 "HgN/A
9:30 am36 °FPartly sunny.17 mph87%30.15 "HgN/A
9:00 am36 °FBroken clouds.17 mph87%30.15 "HgN/A
8:30 am36 °FPartly sunny.16 mph87%30.15 "HgN/A
8:00 am36 °FPartly sunny.14 mph87%30.15 "HgN/A
7:30 am36 °FPassing clouds.15 mph87%30.18 "HgN/A
7:00 am36 °FPassing clouds.16 mph87%30.18 "HgN/A
6:30 am36 °FPassing clouds.16 mph87%30.18 "HgN/A
6:00 am36 °FPassing clouds.15 mph87%30.18 "HgN/A
5:30 am36 °FPassing clouds.15 mph87%30.18 "HgN/A
5:00 am36 °FPartly cloudy.14 mph93%30.21 "HgN/A
4:30 am36 °FPassing clouds.12 mph93%30.21 "HgN/A
4:00 am36 °FPassing clouds.14 mph93%30.21 "HgN/A
3:30 am36 °FPassing clouds.14 mph93%30.21 "HgN/A
3:00 am36 °FLow clouds.13 mph93%30.24 "HgN/A
2:30 am36 °FLow clouds.12 mph93%30.24 "HgN/A
2:00 am36 °FPartly cloudy.10 mph100%30.24 "HgN/A
1:30 am36 °FLow clouds.10 mph93%30.24 "HgN/A
1:00 am36 °FLow clouds.12 mph93%30.24 "Hg5 mi
12:30 am36 °FLow clouds.13 mph93%30.27 "Hg5 mi
12:00 am36 °FPassing clouds.14 mph93%30.27 "Hg6 mi
11:30 pm
Sun, Dec 4
36 °FPartly cloudy.12 mph93%30.27 "Hg6 mi
11:00 pm34 °FLow clouds.12 mph100%30.27 "Hg4 mi
10:30 pm34 °FLow clouds.12 mph100%30.27 "Hg4 mi
10:00 pm34 °FLow clouds.12 mph93%30.27 "Hg4 mi
9:30 pm34 °FLow clouds.10 mph100%30.27 "Hg5 mi
9:00 pm34 °FLow clouds.10 mph93%30.27 "Hg5 mi
Weather by CustomWeather, © 2016

See weather overviewHow to use our weather pages